GFSWCAN_500_spd_000.txt.gz
Wind_Speed
62 56 52 46 42 40 39 39 38 37 34 31 30 31 33 34 33 34 35 35 35 33 38 42 43 51 48 46 46 46 43 47 51 52 51 59 53 41 42 50 46 51 48 44 44 42 46 49 50 52 55 51 50 51
46 38 37 35 35 35 35 35 34 33 29 29 28 28 30 32 32 32 34 35 33 31 36 40 40 45 48 49 49 47 44 44 43 33 39 45 62 48 38 48 51 48 51 55 54 51 48 47 46 49 54 54 52 47
34 33 29 31 30 28 27 27 27 26 27 28 27 27 28 30 32 31 33 33 31 29 33 35 37 39 40 41 42 47 49 45 49 40 36 33 36 47 54 41 62 51 51 50 48 52 53 54 50 49 51 51 57 41
30 27 26 24 20 18 19 18 20 21 22 24 24 25 25 27 31 29 31 33 32 28 31 31 30 32 35 35 35 32 54 44 47 45 43 38 41 48 47 44 51 42 42 45 31 44 43 37 41 45 49 48 46 40
25 21 20 16 15 15 13 13 15 16 16 17 20 23 23 23 29 28 28 35 33 28 32 25 25 28 31 31 35 34 47 41 38 41 39 37 37 43 48 46 40 43 42 41 42 44 31 38 27 27 31 34 39 41
22 18 17 13 12 11 9 11 13 13 14 15 17 17 23 21 27 26 27 32 31 30 32 32 28 33 30 27 33 32 45 38 40 42 39 38 36 38 38 38 44 40 34 34 25 28 31 28 31 30 37 43 36 40
20 15 10 8 8 8 7 9 11 11 13 14 16 18 17 24 25 27 27 28 30 29 18 25 33 31 28 25 30 33 39 41 43 44 44 41 38 35 36 38 40 46 47 27 34 37 37 41 39 36 40 42 50 50
17 12 9 7 6 5 6 7 9 10 14 14 16 18 16 25 25 26 26 27 24 22 24 26 27 28 24 23 26 30 36 40 39 40 44 42 38 41 39 40 40 41 42 43 42 41 45 48 48 50 47 47 48 45
11 8 5 4 3 2 3 6 8 12 15 17 16 16 22 24 23 25 26 25 26 21 29 30 25 25 27 22 24 31 38 34 32 33 36 35 37 39 44 45 44 41 41 41 43 43 43 43 44 44 44 45 44 43
8 4 0 1 4 4 4 7 11 15 15 17 14 17 23 22 22 23 24 24 19 26 29 28 29 24 25 24 24 23 40 29 27 29 33 35 36 40 45 46 46 44 42 42 41 43 47 46 45 43 41 43 44 44
8 5 4 4 4 5 8 11 14 16 16 17 15 20 22 22 22 22 22 22 16 28 28 26 32 23 20 25 24 21 21 34 31 26 30 32 32 31 32 32 31 32 33 37 41 44 44 47 49 46 41 39 41 42
7 6 5 7 7 7 12 14 17 18 15 16 19 24 24 23 22 22 21 22 17 24 28 26 29 23 19 18 20 24 21 19 23 29 32 28 25 24 23 25 30 35 37 37 36 35 34 35 38 40 40 41 41 42
10 8 8 10 10 11 16 18 20 20 26 18 21 25 25 24 23 23 22 18 15 23 28 25 29 29 25 21 20 21 26 25 23 22 21 23 23 24 23 27 26 26 29 31 33 35 37 37 37 37 38 40 42 44
14 13 12 11 12 16 21 23 24 29 24 18 22 25 25 25 23 22 22 15 14 17 25 24 23 23 23 24 25 26 25 23 25 25 27 23 21 19 20 20 20 24 24 26 28 31 31 32 33 35 36 34 34 36
15 14 14 16 20 22 24 26 25 29 27 21 21 25 25 24 22 21 19 16 17 15 16 20 20 19 20 21 22 21 21 20 21 21 16 15 17 19 21 21 22 23 24 26 28 30 31 30 30 29 30 29 32 29
18 17 17 22 22 23 27 26 26 25 26 23 22 23 24 26 20 21 19 15 19 17 18 19 20 19 19 18 18 20 21 20 18 15 15 17 17 19 19 18 20 23 25 26 26 28 27 25 24 25 27 25 22 20
21 21 21 20 23 23 26 26 25 23 24 24 21 24 9 15 18 20 18 17 18 17 16 17 18 19 18 18 20 21 19 18 18 16 18 17 16 17 17 18 19 21 23 24 24 22 21 21 19 22 21 22 21 20
27 27 23 25 23 24 24 23 23 23 23 23 23 18 14 15 16 18 20 19 18 18 17 15 15 15 16 15 15 15 16 17 16 15 16 14 14 15 14 14 17 18 19 18 16 13 9 10 14 15 18 18 18 17
28 26 27 25 23 23 23 22 21 20 21 21 20 16 14 16 18 17 18 19 18 18 18 16 15 15 14 14 14 15 16 15 15 13 13 13 14 16 16 14 14 12 9 9 9 11 15 19 20 18 18 19 19 19
28 26 26 27 26 24 24 24 19 15 16 14 13 10 11 14 15 16 16 16 18 17 16 14 11 9 8 11 12 14 14 13 13 12 11 12 15 15 14 12 12 12 9 10 11 12 12 14 15 15 15 15 16 17
31 27 24 23 21 21 19 16 16 17 17 17 15 14 14 15 15 14 13 13 15 16 14 12 13 10 7 9 9 9 11 12 12 11 10 10 10 12 12 12 11 10 11 13 14 14 15 15 15 13 13 14 17 18
32 27 22 20 19 18 18 18 16 15 14 12 11 11 12 13 13 12 10 10 11 12 10 9 11 9 8 10 9 9 9 9 10 9 10 8 9 8 7 8 8 10 11 13 16 16 16 15 16 16 17 19 19 17
36 34 34 33 34 36 36 34 29 27 22 22 21 20 18 15 13 12 12 12 13 14 15 14 11 9 8 8 6 4 5 5 8 10 11 11 11 11 11 11 12 12 14 16 16 16 16 16 15 16 17 19 20 21
42 43 42 39 38 36 37 34 30 29 29 30 32 30 30 29 23 19 20 19 18 14 11 10 8 8 9 5 9 6 6 7 9 11 11 11 11 13 12 13 14 15 15 16 18 19 18 19 19 20 21 23 24 25
34 32 30 30 27 33 34 33 33 32 30 28 27 24 23 20 20 20 17 18 13 11 11 12 10 7 7 6 4 2 1 3 3 4 7 9 11 15 15 17 17 17 20 22 22 21 20 21 23 25 27 29 30 32
21 20 23 21 25 24 23 24 23 24 22 22 22 21 21 21 21 21 18 15 15 14 13 12 11 10 6 4 3 2 3 4 5 10 12 11 12 13 13 16 21 24 26 26 26 25 25 26 28 30 32 34 36 38
20 21 19 18 18 17 17 17 16 17 17 20 21 18 17 18 19 18 16 14 13 11 10 6 5 6 5 4 5 5 5 7 11 14 17 15 15 16 16 17 19 22 25 28 30 32 33 34 35 36 37 38 39 40
18 20 20 16 16 18 18 18 18 18 18 19 19 18 16 17 18 18 16 15 15 13 12 12 13 13 12 12 12 13 14 13 14 16 18 20 18 18 20 23 25 27 30 33 35 37 39 39 39 39 40 41 43 44
26 25 21 18 16 15 16 16 15 17 18 19 17 15 15 14 13 13 13 13 15 15 14 14 14 13 13 15 15 16 17 17 18 20 21 24 26 28 30 32 34 36 38 38 41 43 44 44 45 45 47 49 51 51
17 17 18 20 19 14 13 13 14 14 15 14 12 11 12 12 12 12 13 13 13 12 13 15 17 18 18 19 21 23 25 25 25 26 27 29 31 32 33 35 37 38 39 41 43 45 46 47 49 50 51 53 55 57
14 13 15 20 16 13 12 12 11 9 8 6 9 12 12 12 10 10 12 13 14 15 17 18 21 23 24 25 25 26 27 29 31 30 31 33 34 35 38 40 42 45 47 49 51 52 52 53 54 55 56 57 58 60
14 12 12 12 12 12 10 10 12 16 15 14 10 10 15 15 15 14 15 17 19 21 25 28 30 30 31 32 33 35 36 36 36 36 37 38 39 41 44 46 48 50 51 52 53 53 55 56 58 60 63 65 67 68
11 2 6 10 10 9 11 12 10 8 10 11 11 7 8 19 16 11 16 20 24 28 29 31 33 34 33 34 35 36 37 39 41 43 45 46 48 49 50 50 51 53 54 55 57 59 60 62 64 67 69 69 70 71

GFSWCAN_500_spd_003.txt.gz
Wind_Speed
47 43 40 36 34 32 32 31 32 34 34 34 33 31 30 30 31 32 34 35 36 38 37 40 43 43 42 47 44 42 41 42 54 45 42 44 40 43 52 51 49 46 40 44 40 52 51 41 44 48 45 37 40 43
35 35 33 31 31 29 29 31 31 28 27 26 25 25 26 26 27 29 32 33 34 35 35 38 39 43 42 46 45 44 42 44 51 41 44 41 44 42 45 45 51 45 46 39 36 50 55 55 40 37 36 37 43 45
34 30 29 28 24 25 24 22 20 19 18 18 21 23 23 23 24 27 30 30 29 30 31 34 35 37 40 42 48 45 46 39 39 47 42 43 43 49 43 44 48 53 48 37 40 39 45 43 45 50 50 49 51 51
28 28 27 23 22 20 18 18 18 15 14 16 18 21 21 20 21 25 28 27 26 27 28 29 29 29 33 37 43 46 44 38 39 41 48 47 40 45 46 46 43 50 51 46 40 47 46 46 44 42 36 41 43 42
27 25 25 21 20 17 15 14 12 10 11 13 15 19 20 20 20 24 25 25 25 26 27 26 24 25 27 32 38 41 41 41 41 36 36 44 20 28 27 35 48 42 41 36 40 51 49 61 50 43 46 44 52 50
25 22 22 17 13 12 10 8 6 7 9 12 14 17 17 17 22 19 24 26 28 28 23 23 24 22 24 27 32 33 33 35 27 37 29 27 30 24 28 29 29 31 36 46 41 46 38 36 28 28 26 30 28 24
25 20 19 11 9 8 5 4 5 7 9 12 12 12 13 17 18 21 26 28 33 31 28 27 26 24 21 21 23 27 31 33 27 35 31 32 32 31 29 25 24 26 28 29 28 26 24 27 25 26 26 23 27 24
24 17 11 6 4 3 1 1 5 7 9 10 11 11 14 14 19 24 25 28 30 28 25 25 29 24 22 24 23 26 28 28 30 38 37 39 36 29 25 29 26 24 19 21 27 26 25 26 26 29 32 35 34 35
15 11 6 3 2 1 1 4 5 8 10 10 11 13 12 15 23 23 26 26 28 27 26 22 28 28 25 23 26 26 26 27 33 34 41 39 40 39 32 28 31 30 29 28 29 31 32 35 32 36 35 33 32 30
7 6 2 2 1 1 3 6 7 11 12 11 12 13 14 20 22 24 24 23 20 24 26 23 21 25 25 21 24 24 27 25 31 35 30 37 40 40 42 39 35 35 34 34 34 34 35 35 35 35 33 33 33 34
4 5 5 6 4 3 6 9 11 13 14 12 17 18 20 20 22 23 24 24 21 22 24 29 24 21 24 18 20 28 26 26 29 30 28 29 36 38 38 37 36 36 35 35 35 37 37 37 37 36 33 31 32 30
8 7 8 8 8 11 13 14 15 14 14 18 21 22 21 21 21 22 23 23 16 28 25 26 25 21 21 19 17 27 30 27 29 32 28 28 30 32 29 27 26 28 32 34 34 32 33 34 32 31 33 39 35 33
12 11 12 10 12 17 18 19 20 20 20 22 25 25 24 24 24 23 21 16 16 29 23 26 28 24 21 20 19 14 25 33 31 31 28 25 25 24 24 25 26 27 29 31 33 32 32 34 31 29 30 32 33 35
18 16 14 12 17 20 24 27 20 17 19 23 26 24 25 22 20 20 17 13 15 26 21 20 29 24 24 24 26 21 15 17 22 28 30 22 22 27 28 27 26 26 27 26 24 24 26 29 30 32 33 35 37 38
18 15 15 17 20 23 29 27 19 18 19 23 24 24 24 23 19 16 11 14 23 21 17 20 29 27 23 23 26 28 23 24 19 14 10 11 10 10 11 13 17 18 19 22 24 26 27 30 32 35 37 38 38 37
22 22 21 21 23 25 28 24 20 17 19 22 22 25 24 19 19 17 12 15 18 17 22 20 24 23 22 22 24 25 24 22 18 16 16 17 18 18 19 19 19 19 21 23 26 28 30 31 31 32 30 26 26 25
24 24 25 26 25 23 23 21 21 20 21 22 19 20 17 17 14 13 17 17 16 18 17 18 18 19 20 22 21 19 17 15 17 17 15 15 15 15 16 17 17 18 21 24 25 25 27 28 28 23 24 23 22 23
28 25 25 26 27 27 26 25 22 25 28 23 18 18 15 17 16 16 16 16 15 16 16 17 18 15 14 13 16 17 17 17 16 15 14 15 15 16 16 17 18 21 20 22 24 25 22 19 17 16 17 17 18 21
27 24 24 25 24 23 20 21 17 21 18 15 17 17 15 15 15 13 13 14 13 13 14 14 14 14 13 13 13 14 14 14 14 13 15 16 16 17 18 18 18 16 17 16 15 12 12 16 21 22 19 20 21 23
26 23 21 22 23 22 18 18 18 17 17 16 15 16 16 14 12 11 11 12 11 11 12 12 12 12 11 10 10 10 11 10 11 13 13 14 16 18 18 18 18 16 15 14 12 11 13 14 16 17 19 20 21 20
22 20 19 18 17 19 20 18 16 15 15 17 17 15 14 13 11 10 8 10 10 11 11 10 7 5 4 4 5 5 7 9 10 12 14 15 13 13 14 15 14 13 12 13 14 15 16 17 19 20 20 20 19 19
27 23 18 18 18 17 16 15 15 16 17 17 17 16 14 13 12 11 10 10 10 9 7 6 6 6 5 5 5 4 6 8 10 12 13 11 10 9 8 6 7 11 13 15 16 17 18 20 21 21 21 22 23 23
41 38 36 36 37 35 31 27 23 19 15 14 14 15 15 13 12 11 12 11 10 8 9 10 8 6 7 7 6 5 4 5 7 10 10 11 10 9 12 12 12 14 17 18 18 21 20 19 20 21 21 22 23 24
35 39 38 36 35 33 32 32 32 32 30 28 26 23 23 23 23 23 20 16 13 11 9 8 8 6 5 3 2 2 5 6 6 8 12 13 15 15 14 15 16 19 20 21 23 22 22 24 25 25 25 25 27 29
26 27 27 27 28 29 26 26 26 26 25 24 24 23 30 26 21 21 16 11 10 8 8 6 6 3 5 4 3 2 2 2 4 6 9 11 11 14 16 19 21 24 26 26 24 26 27 26 27 29 30 32 33 34
18 20 18 20 19 20 23 24 25 26 25 23 22 21 19 17 15 18 18 16 15 12 13 12 10 7 4 3 4 6 8 9 11 12 13 15 17 19 21 24 25 25 26 27 27 27 28 30 31 32 34 37 39 41
15 16 18 18 17 19 18 20 20 21 22 21 22 20 17 16 19 21 20 17 14 14 12 10 10 9 7 5 6 7 9 12 14 16 16 17 18 21 23 24 25 27 28 30 32 33 35 37 37 38 39 41 42 44
19 19 18 19 19 19 20 20 18 19 20 19 20 18 16 15 15 14 14 14 13 11 10 8 7 7 10 13 14 15 16 17 19 20 20 20 21 22 24 26 28 31 33 36 39 42 43 43 43 44 46 47 47 49
21 23 17 15 16 18 19 17 17 17 16 16 18 17 16 14 11 11 11 11 11 12 15 18 21 22 23 24 24 24 24 25 26 27 28 30 31 32 32 35 36 37 38 40 42 45 46 48 50 52 53 54 55 56
18 20 18 15 14 14 15 14 14 14 15 13 12 12 11 9 10 12 12 14 15 16 18 20 22 23 25 25 27 29 30 30 30 30 31 32 33 34 35 37 39 40 42 44 46 48 51 52 54 56 57 58 59 59
14 17 15 12 9 9 10 9 6 9 7 7 7 9 10 14 13 11 12 14 17 19 21 23 25 27 29 31 31 32 32 33 34 34 35 36 37 39 42 44 45 47 48 50 52 54 55 56 58 59 61 62 63 65
9 19 6 9 10 11 11 10 10 8 6 7 7 11 14 24 22 21 12 21 22 20 19 28 34 32 32 34 36 37 38 38 38 40 42 44 46 48 48 48 50 51 53 54 56 57 58 59 61 62 64 66 67 69
12 12 11 12 11 12 11 11 12 10 13 19 14 18 16 17 16 21 21 28 24 27 34 38 40 41 40 40 41 41 43 44 46 47 49 50 51 51 52 53 53 54 55 56 58 60 62 63 65 66 66 67 67 67

GFSWCAN_500_spd_006.txt.gz
Wind_Speed
49 44 43 40 37 34 32 31 29 28 29 31 31 29 27 28 29 30 30 32 29 27 30 35 35 37 40 41 40 40 41 42 41 45 47 46 46 45 42 41 53 22 26 20 27 39 38 36 36 39 38 40 37 38
47 44 39 36 33 32 30 26 26 25 24 21 18 19 20 20 21 22 25 25 29 28 27 32 32 32 34 36 38 39 39 42 34 36 46 46 43 38 37 37 33 53 27 26 41 42 35 33 32 35 38 40 42 39
42 40 36 34 32 30 26 24 22 20 18 15 14 15 16 19 20 20 23 24 23 24 25 28 29 28 30 34 37 41 38 43 31 36 37 39 41 34 31 32 29 25 39 33 38 36 42 41 39 38 34 37 39 40
32 35 32 30 29 26 24 21 20 18 13 10 11 13 14 15 14 15 17 15 19 20 22 25 24 25 26 31 36 41 46 41 42 26 36 32 38 33 31 27 26 26 28 42 38 35 38 46 45 43 44 40 39 40
27 27 27 25 24 21 17 17 14 9 8 7 9 10 13 13 11 12 15 15 19 20 23 22 22 23 24 25 31 31 43 37 42 34 27 25 39 33 31 31 30 26 30 34 35 38 38 43 31 42 42 44 42 39
27 23 21 22 20 13 13 11 8 5 5 6 7 10 12 12 12 11 12 17 20 21 22 22 22 22 23 23 28 28 30 41 33 35 32 29 30 36 33 34 33 33 25 26 29 40 38 46 36 33 38 44 39 39
24 20 18 16 12 9 9 6 4 2 2 5 7 10 11 11 10 14 16 20 22 20 23 24 22 22 20 21 24 28 29 27 26 30 27 24 23 33 31 29 36 35 26 21 22 27 28 34 40 38 36 44 49 47
13 10 11 9 5 5 4 2 1 1 4 5 8 9 10 12 17 15 22 24 27 24 26 26 23 23 20 20 23 28 32 29 29 26 27 23 19 26 32 25 21 26 27 27 27 27 24 26 29 26 26 33 31 27
6 3 5 3 2 2 2 2 3 3 5 7 8 10 13 13 17 25 25 28 30 27 27 27 25 23 21 21 22 26 28 30 29 27 24 28 20 16 23 27 20 18 17 22 19 20 22 19 18 22 21 21 19 22
7 6 5 3 3 3 3 4 5 7 8 9 12 11 14 21 23 24 25 26 25 22 19 18 25 21 17 16 18 23 24 24 25 25 28 27 30 31 20 25 28 19 22 22 20 19 18 18 20 21 21 24 23 24
11 9 10 8 7 7 8 8 11 11 12 13 14 18 23 23 24 26 25 25 25 21 19 16 24 25 20 18 18 21 25 24 23 25 30 34 37 33 33 25 28 31 21 20 20 21 22 23 25 25 26 26 26 26
12 13 15 14 14 14 14 15 16 14 17 18 21 24 23 24 24 23 21 20 23 23 24 23 22 22 19 15 15 22 22 23 23 24 28 29 33 34 35 34 31 28 27 25 28 30 29 27 27 26 25 25 26 28
15 16 18 19 19 18 17 19 17 19 22 24 24 23 23 22 19 16 13 16 14 21 25 26 25 19 19 16 13 27 25 22 19 22 27 30 26 28 29 27 29 30 29 30 31 31 29 27 26 27 30 29 24 25
18 18 19 21 22 22 22 22 20 22 24 22 22 22 21 19 15 13 10 10 17 18 22 24 24 21 20 19 22 22 21 24 21 23 20 21 26 23 23 23 24 23 23 24 26 25 25 26 26 24 24 24 25 25
19 20 21 23 19 20 25 23 21 26 22 22 27 29 16 13 14 11 12 16 15 12 22 25 20 22 23 20 20 29 27 24 21 16 22 22 23 23 23 19 19 24 23 23 23 23 23 22 23 23 24 26 28 30
23 22 21 20 20 19 22 20 23 26 20 21 22 20 15 15 16 13 16 19 16 16 21 25 22 23 23 24 21 21 23 14 20 19 22 18 16 15 15 19 20 18 19 18 17 18 19 20 23 25 27 28 28 28
26 23 19 15 15 15 18 18 21 24 21 17 16 14 13 18 19 13 16 16 13 13 15 22 23 18 18 16 21 21 16 13 13 12 8 11 12 12 11 11 11 13 13 14 15 17 21 23 23 25 25 24 21 18
24 22 20 18 16 15 18 19 17 19 18 15 11 12 12 18 17 16 13 13 13 12 19 16 16 13 14 12 11 12 12 11 14 14 11 11 10 10 10 11 11 11 13 15 17 19 21 21 20 18 15 15 15 17
22 21 19 17 15 15 17 18 17 15 14 13 11 12 12 11 12 14 13 13 13 13 13 16 14 13 13 14 13 13 11 9 10 10 10 11 11 10 11 12 13 14 16 15 15 15 16 15 16 16 17 21 23 25
21 21 19 16 15 13 13 15 15 14 14 13 11 11 11 12 13 14 14 14 14 14 14 14 14 14 12 11 11 10 9 9 9 9 9 11 13 12 13 14 15 16 17 17 16 14 15 16 18 18 19 20 22 24
20 16 15 18 18 14 12 11 12 13 15 15 14 14 13 14 14 12 12 12 13 13 13 13 12 10 9 9 8 7 7 6 7 8 11 11 10 9 10 12 15 16 17 18 19 18 20 21 21 22 22 22 23 25
36 31 25 18 13 14 16 15 14 13 12 11 11 12 13 14 14 14 13 13 11 11 9 9 9 8 8 8 7 5 5 6 8 9 11 11 9 10 11 12 13 15 17 20 21 22 22 21 21 21 21 21 23 25
34 32 33 33 31 27 22 19 18 17 15 14 13 13 13 13 13 13 12 12 10 10 9 8 7 7 7 6 5 4 2 1 5 8 11 12 12 13 13 14 18 19 18 19 21 21 22 23 24 23 25 26 27 29
29 29 28 26 27 28 28 26 24 22 24 22 20 17 18 21 19 16 14 14 12 12 11 10 10 9 7 5 4 6 7 6 6 7 8 10 12 14 18 20 20 21 22 23 24 25 26 27 28 29 31 33 34 34
20 24 24 23 25 23 22 23 21 18 20 27 23 24 26 19 14 15 17 17 14 11 10 9 7 6 4 5 6 7 8 8 8 8 10 12 14 16 18 20 22 24 26 27 28 29 29 30 32 33 33 33 34 35
19 22 21 20 21 20 21 23 23 22 19 17 17 16 15 17 17 18 16 14 14 13 12 11 9 8 8 8 9 10 11 12 13 14 15 17 18 20 21 23 25 26 27 29 30 31 32 33 34 36 37 39 41 43
21 24 23 22 22 22 21 21 21 20 19 20 20 19 15 12 14 16 17 15 14 14 13 13 13 12 10 10 10 11 12 13 14 16 18 20 22 23 25 27 28 29 31 33 35 37 38 40 42 44 45 47 48 48
19 18 18 18 19 19 19 19 18 17 16 16 17 16 14 14 13 12 11 10 10 11 11 10 10 11 13 16 18 20 20 21 21 22 23 24 26 28 29 31 33 34 35 37 38 40 42 43 44 46 47 49 50 52
20 15 13 13 13 13 12 13 14 13 13 12 11 10 9 10 10 10 8 7 6 7 10 13 14 18 22 26 29 31 31 31 31 32 34 34 35 37 38 38 39 40 41 43 46 47 49 50 51 52 53 54 56 57
20 17 13 13 14 13 13 13 13 14 12 10 9 11 11 13 14 13 12 12 14 17 19 18 16 21 27 29 32 34 35 37 37 37 39 40 41 42 43 44 45 46 47 48 50 51 53 54 56 58 60 61 63 64
17 16 9 11 10 12 12 13 12 12 13 14 16 16 13 19 24 28 20 20 18 24 23 22 26 30 36 42 42 40 39 40 41 43 44 44 45 45 45 46 47 49 50 52 53 54 55 57 58 59 61 62 64 65
16 16 15 15 13 14 15 14 13 13 15 18 28 16 18 20 19 25 26 32 22 25 30 35 40 45 45 45 45 45 45 45 44 43 43 44 44 45 46 48 49 51 52 54 55 57 58 59 60 62 63 64 64 65
16 15 14 14 18 18 17 15 16 17 16 21 19 13 11 14 22 14 18 28 32 33 36 39 41 44 45 46 47 46 46 46 46 46 48 49 50 51 53 54 54 55 56 56 57 57 58 59 58 58 58 57 56 56

GFSWCAN_500_spd_009.txt.gz
Wind_Speed
64 57 50 41 39 40 36 35 34 30 26 24 24 24 26 24 21 21 18 21 22 32 27 30 30 31 30 34 41 37 41 46 46 45 48 45 45 50 49 46 42 38 42 50 40 38 39 42 29 29 32 33 35 41
56 51 44 41 35 33 33 30 29 26 22 20 19 19 15 15 14 13 14 16 17 18 24 27 27 30 30 34 35 36 40 44 43 42 46 41 42 47 48 43 39 38 39 43 31 47 44 39 33 30 29 30 37 33
49 43 38 33 29 27 27 26 24 20 19 19 16 13 12 11 11 12 13 12 14 18 22 26 28 27 28 28 34 35 39 40 39 38 38 40 41 43 43 40 33 30 34 34 37 16 44 34 36 37 35 35 38 33
42 31 27 22 22 22 21 20 17 16 13 9 8 8 7 6 6 7 5 7 10 15 19 20 21 25 24 25 34 40 41 40 38 34 30 34 41 39 37 37 26 28 28 29 30 29 23 35 39 39 41 40 40 39
30 24 20 15 17 16 16 14 13 9 7 5 5 3 4 4 5 5 9 6 15 19 18 21 24 25 25 27 31 37 42 40 35 36 32 37 39 36 32 29 26 23 20 18 18 35 25 34 35 37 39 42 44 44
23 18 15 10 13 13 10 10 9 6 6 3 1 4 6 6 6 7 8 6 23 18 20 24 26 26 21 23 34 33 44 49 31 37 34 36 32 29 29 28 25 20 21 19 21 22 37 30 41 39 42 44 45 44
18 14 9 9 9 7 8 8 7 6 5 4 6 8 8 7 7 13 10 24 20 20 22 27 24 24 21 19 28 24 28 25 27 13 32 23 17 23 27 30 30 28 24 22 24 21 24 29 36 42 41 55 46 46
19 15 12 10 9 9 8 7 7 7 7 7 8 7 9 11 14 13 23 24 21 25 25 25 24 22 21 20 19 29 26 25 27 23 19 20 16 17 24 31 34 32 27 20 23 22 27 25 25 32 37 40 41 41
22 19 15 13 10 9 8 8 9 9 9 10 10 11 12 18 20 24 29 22 27 26 26 25 23 21 22 21 21 35 31 25 21 20 19 19 18 23 24 31 20 26 30 29 27 31 28 24 23 26 28 26 20 34
24 21 15 13 11 11 11 11 12 12 13 13 13 13 15 18 24 29 27 28 28 25 24 24 21 21 23 24 22 26 32 27 20 19 21 26 28 26 24 27 27 25 37 38 31 26 26 31 14 19 16 12 11 11
25 21 19 17 15 15 15 14 15 16 16 14 18 21 24 26 24 26 24 24 25 22 24 23 22 23 24 24 22 25 27 26 22 19 23 24 28 25 29 37 31 32 25 17 26 20 6 5 5 3 7 8 13 15
24 23 23 20 19 19 18 17 17 17 19 22 24 24 24 23 23 23 20 20 20 16 16 22 19 18 17 20 22 23 23 23 23 22 21 25 26 26 22 15 31 30 19 17 12 10 9 10 12 13 16 18 19 20
25 28 30 28 23 21 20 21 21 24 25 25 23 22 21 18 15 14 18 17 14 17 13 20 24 17 18 19 20 22 23 19 18 17 19 22 22 25 27 26 28 24 26 24 18 16 16 18 19 18 20 22 23 24
26 28 30 26 25 25 24 26 30 29 27 26 22 20 20 17 11 15 14 13 15 15 16 22 23 17 17 19 17 19 18 18 18 18 16 20 20 21 21 20 26 23 17 17 18 20 21 22 23 22 22 23 24 23
25 29 30 30 28 27 28 27 23 24 27 28 23 22 15 13 12 12 14 17 14 14 14 23 20 17 12 16 19 15 15 20 15 13 7 17 22 18 19 21 21 21 20 18 19 20 21 21 23 25 23 22 21 22
22 26 28 27 23 24 25 22 22 19 19 21 22 17 20 20 18 17 18 14 13 16 17 16 17 10 15 13 19 17 16 16 11 10 12 13 20 20 19 21 22 19 21 21 20 19 18 18 19 19 20 21 21 22
24 26 26 24 21 20 20 19 19 20 19 21 20 15 14 14 14 13 12 10 9 11 15 11 8 13 15 17 21 17 12 11 12 8 7 11 14 21 21 19 22 19 18 18 16 15 16 17 18 18 19 20 21 21
23 23 25 26 25 23 19 18 15 14 19 17 17 14 14 15 13 10 9 8 8 10 13 14 8 7 11 14 17 11 11 15 11 15 11 9 12 12 12 11 9 9 11 13 13 13 14 15 17 18 18 18 18 17
20 19 17 17 19 23 24 21 18 17 18 19 20 19 17 16 17 20 21 19 17 19 17 15 13 12 14 16 15 12 10 12 9 7 6 5 5 5 6 8 9 9 11 12 14 14 16 17 17 14 14 15 15 16
20 19 18 18 17 17 18 19 19 19 20 19 18 17 17 19 20 19 20 20 20 19 16 14 13 14 12 12 11 9 7 5 4 4 3 3 5 7 10 11 13 14 16 17 17 19 20 19 18 17 16 17 19 20
26 17 17 17 16 16 17 17 19 19 19 18 19 18 18 17 18 19 20 20 19 17 16 15 14 14 13 11 10 8 7 7 6 6 8 10 10 10 12 13 15 16 17 17 18 18 20 20 19 18 18 18 20 22
31 30 26 20 17 16 16 16 16 16 17 18 19 18 18 18 18 17 15 14 13 12 11 12 11 9 8 7 6 6 6 6 7 8 9 11 11 12 15 15 15 15 16 18 18 19 20 22 22 22 22 24 26 28
26 24 24 25 24 23 20 17 17 17 16 15 16 18 19 19 18 18 16 17 17 14 13 13 14 13 11 9 9 7 4 2 3 5 7 9 11 13 15 16 17 18 18 20 21 23 23 23 24 26 28 31 32 33
22 21 19 22 24 25 25 25 27 27 21 21 23 24 22 22 25 18 16 15 15 14 15 12 12 9 7 4 4 6 7 7 7 7 7 8 10 12 15 17 20 22 24 24 25 27 28 29 31 33 35 36 36 36
15 19 22 22 22 21 22 21 19 22 25 25 18 21 21 20 19 22 20 16 14 15 14 13 12 11 11 11 11 12 12 12 12 12 13 14 14 15 17 19 21 24 26 27 28 30 31 32 34 34 35 36 37 38
21 22 21 21 21 20 19 19 19 20 19 17 18 18 17 14 14 15 12 13 14 13 12 12 12 13 14 14 14 15 15 16 17 18 18 20 21 22 23 25 27 28 29 30 31 32 34 35 36 37 39 40 41 43
19 19 20 20 19 19 19 18 17 17 17 18 20 20 19 17 17 16 15 14 12 11 10 10 11 11 11 12 13 15 16 17 18 20 21 23 24 25 27 28 30 31 33 34 35 36 37 38 39 40 41 42 43 44
15 16 16 15 15 16 16 17 16 17 16 16 14 13 12 12 12 12 13 13 13 11 12 12 12 11 11 13 18 22 27 32 34 34 35 35 36 37 37 38 39 40 42 42 43 44 45 46 47 47 49 50 51 52
17 11 12 13 13 14 15 15 15 16 15 13 14 13 12 14 18 19 18 18 16 15 15 16 18 19 21 26 29 32 36 39 39 39 39 40 41 43 44 45 45 46 47 48 49 50 50 51 52 53 53 54 55 56
14 12 14 13 15 17 19 19 18 16 13 13 14 17 17 18 21 21 25 21 21 22 22 26 31 31 35 41 44 47 47 46 45 44 43 43 43 43 43 44 46 47 47 48 49 50 51 52 53 54 56 57 58 59
12 12 16 16 16 17 17 16 16 18 18 18 20 23 20 13 21 23 26 22 21 24 29 31 32 37 40 42 45 46 47 46 45 45 45 45 45 46 46 47 47 48 49 49 50 51 52 54 55 57 58 60 61 62
17 17 16 16 16 16 15 15 15 17 19 19 27 24 18 15 23 25 26 27 29 32 34 36 37 38 40 41 42 44 44 45 45 45 46 46 47 48 48 49 49 50 51 52 53 54 54 54 53 53 52 52 52 52
19 18 17 17 17 18 17 17 17 19 19 19 19 21 21 20 22 24 25 27 29 31 34 36 38 40 41 43 44 46 47 48 49 49 50 50 50 49 49 48 46 44 43 43 43 43 44 45 45 46 46 47 48 48

GFSWCAN_500_spd_015.txt.gz
Wind_Speed
60 57 50 42 34 29 23 18 16 12 12 16 18 16 16 14 15 15 17 17 19 16 13 21 22 23 27 26 22 18 26 27 33 38 52 55 35 38 42 35 51 56 57 50 41 42 40 42 43 45 37 41 31 29
52 49 44 36 30 25 23 18 14 11 15 15 13 13 14 15 13 11 11 9 12 16 12 17 20 22 20 22 26 24 28 23 33 25 33 45 32 43 38 39 33 50 53 41 36 38 48 47 45 40 30 32 28 28
47 42 36 32 32 28 22 18 15 13 12 11 9 8 6 5 5 5 4 6 7 7 11 14 21 24 21 20 18 20 28 25 33 36 43 42 36 27 49 36 35 47 42 41 49 48 49 45 47 38 34 32 27 31
44 41 34 30 27 24 21 18 15 13 10 9 7 5 4 2 4 6 4 4 4 6 12 16 19 23 23 19 17 17 19 22 30 37 50 46 46 23 53 42 47 46 52 54 53 55 52 49 42 32 30 29 30 36
40 36 31 26 25 22 22 19 16 13 11 10 8 8 7 9 10 7 3 2 1 4 8 12 16 16 17 18 20 21 22 22 28 35 49 44 48 28 38 31 49 42 43 33 61 58 48 41 37 30 29 26 31 37
35 30 28 23 21 24 23 19 16 13 12 11 10 8 9 11 10 12 10 4 5 13 16 17 17 18 19 21 22 23 24 26 28 31 45 41 44 27 38 41 43 41 35 48 34 25 31 36 34 30 28 33 27 42
30 26 23 22 23 23 21 19 16 14 12 11 11 14 15 9 5 6 7 8 14 17 17 16 15 12 14 16 22 26 26 30 29 22 31 38 36 33 36 32 42 38 35 26 30 35 34 32 30 33 35 35 32 44
29 25 24 26 25 24 21 19 17 13 13 13 14 13 10 8 12 13 16 16 16 16 15 15 14 12 9 12 23 27 31 34 16 25 24 28 23 27 32 31 33 30 28 28 29 28 29 32 34 33 32 23 35 46
30 28 29 27 26 25 23 23 19 17 15 15 14 11 13 17 22 25 23 17 18 15 7 15 10 13 12 11 14 24 38 23 33 24 20 18 20 34 31 32 30 29 27 27 28 29 31 36 30 29 34 38 39 47
32 30 28 26 25 24 24 23 22 19 15 12 14 16 18 27 25 25 30 14 19 15 11 7 11 21 14 21 15 30 30 29 20 15 16 12 13 33 36 33 31 30 29 29 27 26 23 31 36 32 47 50 38 46
33 31 28 27 26 24 23 22 21 21 20 18 17 18 23 24 28 29 23 22 20 22 22 19 17 26 22 27 21 26 23 22 16 15 19 23 15 28 33 32 31 32 30 27 24 26 19 10 17 32 30 26 42 28
31 30 30 30 30 28 25 25 24 22 21 20 19 19 18 14 23 20 16 17 24 13 17 17 18 25 26 17 18 24 18 12 19 17 23 21 19 21 26 29 30 33 31 29 28 27 21 16 22 23 27 26 25 26
26 27 29 31 28 26 26 25 24 25 25 20 15 14 13 15 21 25 24 10 10 11 17 19 16 23 18 22 21 6 15 15 17 20 29 16 18 24 22 28 23 29 29 24 25 25 20 23 27 21 22 25 29 24
21 20 26 27 27 26 24 25 25 23 21 19 15 11 11 11 14 14 15 14 12 11 17 15 18 15 16 14 11 10 12 12 17 18 17 13 10 9 15 14 10 16 23 20 22 24 25 21 18 14 11 13 15 14
22 20 18 20 21 21 22 21 22 20 21 16 19 14 13 10 8 6 8 11 11 11 19 17 16 15 12 16 12 19 18 16 15 11 11 15 14 13 7 4 2 5 12 19 19 22 21 18 15 13 10 10 14 17
24 22 19 18 19 19 19 19 20 17 13 14 17 14 10 8 8 6 7 13 17 13 16 10 14 16 13 12 11 17 24 19 11 9 14 14 14 6 3 2 2 3 7 8 9 13 18 13 8 10 13 17 17 19
22 22 21 21 21 21 21 24 22 15 15 16 14 12 12 12 12 12 13 22 18 16 14 11 14 15 13 12 13 20 20 17 17 12 13 9 5 2 2 3 3 2 1 4 4 5 6 9 13 16 17 18 19 20
20 21 20 19 19 20 21 22 22 20 18 17 15 13 11 9 12 15 19 14 9 7 7 11 11 14 12 17 17 16 17 14 10 7 7 6 7 4 2 2 2 4 6 4 6 8 10 11 11 12 12 14 16 17
15 17 19 19 19 19 20 19 20 21 23 23 23 25 23 24 22 20 17 13 10 9 13 12 9 10 11 13 16 17 10 8 9 8 5 6 6 8 9 10 11 10 8 7 7 9 9 10 12 14 14 16 20 21
20 15 14 15 18 18 18 20 19 18 22 21 22 24 26 26 26 25 23 22 20 17 18 16 14 14 15 14 12 12 9 7 4 3 4 7 8 9 8 8 8 9 11 12 12 14 15 16 17 19 20 22 23 23
28 28 22 16 14 16 19 20 21 20 19 19 21 22 23 24 24 24 23 23 24 22 20 19 17 15 12 10 8 7 6 5 5 5 6 6 6 7 10 13 14 16 16 18 19 19 20 20 20 21 22 24 23 25
19 22 29 25 22 16 16 17 19 21 21 23 23 23 23 23 24 24 24 24 20 19 18 17 14 12 10 7 4 3 0 3 5 7 8 9 11 11 13 15 17 18 19 20 21 21 21 21 22 23 23 25 26 28
21 22 19 17 21 23 23 21 19 20 23 26 23 22 23 22 23 22 20 20 20 19 16 13 11 9 8 6 4 4 3 4 5 6 8 10 11 13 14 16 17 17 19 20 22 24 25 26 28 30 32 33 33 33
20 17 17 22 24 22 21 19 18 16 18 20 19 19 20 19 17 15 14 12 10 8 9 8 6 5 4 3 3 3 3 4 5 6 7 9 12 14 16 18 21 21 21 25 26 27 28 30 31 33 34 35 36 37
17 19 22 24 23 21 18 18 17 15 15 17 17 15 15 15 14 12 11 10 9 9 8 8 8 8 8 7 7 7 7 7 8 11 17 20 23 26 28 29 29 26 26 29 32 33 35 36 37 38 38 40 40 40
12 18 21 20 20 19 18 17 14 14 16 15 15 16 16 15 12 11 11 13 13 15 15 13 13 14 15 16 17 18 17 18 22 25 25 29 31 33 35 37 36 38 37 39 38 38 41 42 43 45 47 47 49 49
10 13 16 17 18 16 14 15 15 15 15 15 15 15 15 16 21 14 9 11 11 17 18 17 17 20 21 22 22 23 27 30 31 33 37 40 40 38 35 37 37 35 37 38 39 40 40 41 43 45 46 47 49 51
12 11 11 13 14 15 14 15 14 12 12 13 14 15 17 15 16 11 11 14 18 24 24 22 22 24 27 30 33 35 36 37 39 38 39 40 41 40 39 40 41 41 43 42 43 45 45 47 48 49 50 52 53 54
11 11 10 11 11 11 12 12 15 16 16 16 17 20 23 22 18 16 21 23 24 26 27 28 31 32 35 40 41 40 40 40 41 41 42 43 43 44 44 44 45 45 46 48 49 49 49 51 52 54 55 56 57 58
13 14 13 11 12 14 15 16 16 17 18 18 19 20 20 21 20 21 22 25 27 29 32 34 35 36 39 40 42 44 44 43 44 44 44 43 44 44 44 44 44 45 45 45 45 46 46 43 42 42 43 44 46 48
16 15 15 15 16 16 15 17 19 21 23 24 25 25 26 26 26 28 31 34 37 39 41 44 45 44 43 41 38 37 37 35 34 33 33 33 33 32 31 30 28 27 27 28 30 31 32 32 32 32 33 35 37 40
17 17 18 18 19 20 21 20 20 24 28 28 31 31 33 36 37 38 39 42 45 45 42 38 36 35 34 31 28 26 25 25 23 23 24 24 24 23 23 24 24 25 24 23 22 23 23 24 26 29 32 36 38 36
17 18 19 19 21 22 23 23 25 28 29 31 32 32 33 34 37 41 43 40 35 32 30 29 29 31 31 29 27 26 24 23 23 23 22 21 21 21 20 19 19 20 21 21 22 23 24 25 27 29 32 35 34 33